Погода в Скорнякове

Россия / Липецкая область     52°40′20″N   38°55′21″E
темп.,
°C
ветер,
м/с
пор.,
м/с
влажн.,
%
обл.,
%
осадки,
мм/ч
давл.,
гПа
погр.,
м
28 июля, ср
ср2800:00+17ю117440 0.1 101911
03:00+17зюз2274100 0.1 101811
06:00+19ююв117299 0.0 101711
09:00+24ю2352100 0.0 1017396
12:00+28юз4439100 0.0 10161227
15:00+29зюз4634100 0.0 10142515
18:00+24с4651100 0.0 1013176
21:00+19в3476100 0.1 101390
29 июля, чт
чт2900:00+20юв386892 0.0 1011186
03:00+18з347780 0.0 101064
06:00+18зюз36835 0.0 1010179
09:00+24з46615 0.0 1009706
12:00+29з574648 0.0 10092020
15:00+27зсз4850100 0.1 1008422
18:00+27з355098 0.0 1008283
21:00+22зюз22658 0.0 100816
30 июля, пт
пт3000:00+22юз2263100 0.0 100825
03:00+20ююз336988 0.0 100729
06:00+22ююз2463100 0.0 1007127
09:00+27зюз574831 0.0 1007727
12:00+31юз684179 0.0 10061810
15:00+29з7947100 0.1 10052195
18:00+26зсз6855100 0.2 10061152
21:00+22зсз33740 0.2 100740
31 июля, сб
сб3100:00+19сз34826 0.0 100855
03:00+18зсз34771 0.0 100857
06:00+18зсз35725 0.0 1009128
09:00+25з45455 0.0 1009758
12:00+28з56345 0.0 10092289
15:00+30з683016 0.0 10092775
18:00+29зсз57345 0.0 10092424
21:00+22з225254 0.0 101014
1 августа, вс
вс100:00+20з116269 0.0 101111
03:00+19ююз22645 0.0 101112
06:00+20ююз35654 0.0 1011104
09:00+28ююз57400 0.0 1010587
12:00+32ююз79280 0.0 10092720
15:00+33юз792624 0.0 10082840
18:00+30з5833100 0.0 1008776
21:00+24зсз2256100 0.0 100916